Pittsfield, MA

6:38 AM EDT on October 20, 2017 (GMT -0400)
Pittsfield Municipal

Weather History for KPSF - December, 2012

Change the Weather History Date:

Sunday, December 9, 2012

  Actual Average Record
Temperature  
Mean Temperature 39 °F 29 °F  
Max Temperature 44 °F 36 °F 61 °F (1927)
Min Temperature 34 °F 22 °F -1 °F (1934)
Degree Days  
Heating Degree Days 26 36  
Month to date heating degree days 263 309  
Since 1 July heating degree days 1770 1960  
Cooling Degree Days 0 0  
Month to date cooling degree days 0 0  
Year to date cooling degree days 465 290  
Moisture  
Dew Point 32 °F    
Average Humidity 77    
Maximum Humidity 100    
Minimum Humidity 53    
Precipitation  
Precipitation 0.14 in 0.10 in 1.06 in (1963)
Month to date precipitation 1.14 0.92  
Year to date precipitation 33.65 43.30  
Sea Level Pressure  
Sea Level Pressure 30.13 in    
Wind  
Wind Speed 6 mph (NW)    
Max Wind Speed 16 mph    
Max Gust Speed 24 mph    
Visibility 10 miles    
Events Rain    
T = Trace of Precipitation, MM = Missing Value Source: NWS Daily Summary

Daily Weather History Graph

Daily Weather History Graph

Search for Another Location

Airport or City:

Trip Planner

Search our weather history database for the weather conditions in past years. The results will help you decide how hot, cold, wet, or windy it might be!

Date:

Astronomy

Dec. 09, 2012 Rise Set
Actual Time 7:11 AM EST 4:20 PM EST
Civil Twilight 6:39 AM EST 4:52 PM EST
Nautical Twilight 6:04 AM EST 5:27 PM EST
Astronomical Twilight 5:29 AM EST 6:01 PM EST
Moon 2:37 AM EST (12/9) 1:28 PM EST (12/9)
Length of Visible Light 10h 12m
Length of Day
9h 09m
Waning Crescent, 19% of the Moon is Illuminated
Dec 9
Waning Crescent
Dec 13
New
Dec 20
First Quarter
Dec 28
Full
Jan 4
Last Quarter

Hourly Weather History & Observations

Time (EST) Temp. Windchill Dew Point Humidity Pressure Visibility Wind Dir Wind Speed Gust Speed Precip Events Conditions
12:54 AM 43.0 °F 36.4 °F 41.0 °F 93% 30.00 in 10.0 mi WNW 12.7 mph 21.9 mph N/A   Overcast
1:16 AM 42.8 °F 37.0 °F 39.2 °F 87% 30.01 in 10.0 mi NW 10.4 mph - N/A   Overcast
1:46 AM 42.8 °F 39.3 °F 39.2 °F 87% 30.02 in 10.0 mi Variable 5.8 mph - N/A   Overcast
1:54 AM 42.1 °F 36.6 °F 37.9 °F 85% 30.03 in 10.0 mi NW 9.2 mph 17.3 mph N/A   Overcast
2:33 AM 41.0 °F 35.2 °F 37.4 °F 87% 30.04 in 10.0 mi NW 9.2 mph - N/A   Scattered Clouds
2:54 AM 41.0 °F 37.1 °F 36.0 °F 82% 30.05 in 10.0 mi Variable 5.8 mph - N/A   Partly Cloudy
3:41 AM 39.2 °F 32.0 °F 35.6 °F 87% 30.06 in 10.0 mi WNW 11.5 mph 17.3 mph N/A   Mostly Cloudy
3:54 AM 39.0 °F 31.4 °F 35.1 °F 86% 30.07 in 10.0 mi WNW 12.7 mph - N/A   Overcast
4:54 AM 37.0 °F 28.9 °F 33.1 °F 86% 30.13 in 10.0 mi NW 12.7 mph 17.3 mph N/A   Overcast
5:54 AM 36.0 °F 31.1 °F 30.9 °F 82% 30.15 in 10.0 mi WNW 5.8 mph - N/A   Overcast
6:42 AM 35.6 °F 27.5 °F 30.2 °F 81% 30.17 in 10.0 mi NW 11.5 mph - N/A   Scattered Clouds
6:54 AM 34.0 °F 25.0 °F 28.9 °F 82% 30.19 in 10.0 mi NW 12.7 mph - N/A   Partly Cloudy
7:54 AM 34.0 °F - 28.9 °F 82% 30.22 in 10.0 mi Calm Calm - N/A   Clear
8:54 AM 35.1 °F 30.1 °F 28.9 °F 78% 30.22 in 10.0 mi NW 5.8 mph - N/A   Clear
9:54 AM 36.0 °F 32.1 °F 30.0 °F 79% 30.23 in 10.0 mi West 4.6 mph - N/A   Clear
11:54 AM 37.9 °F 35.5 °F 30.0 °F 73% 30.21 in 10.0 mi West 3.5 mph - N/A   Clear
12:54 PM 39.9 °F - 28.9 °F 65% 30.19 in 10.0 mi Calm Calm - N/A   Clear
1:54 PM 42.1 °F 40.2 °F 27.0 °F 55% 30.17 in 10.0 mi North 3.5 mph - N/A   Clear
2:54 PM 42.1 °F - 27.0 °F 55% 30.17 in 10.0 mi Calm Calm - N/A   Scattered Clouds
3:54 PM 39.9 °F - 30.0 °F 68% 30.19 in 10.0 mi Calm Calm - N/A   Overcast
4:54 PM 39.0 °F 34.8 °F 28.9 °F 67% 30.20 in 10.0 mi ESE 5.8 mph - N/A   Overcast
5:54 PM 39.0 °F 34.8 °F 28.9 °F 67% 30.21 in 10.0 mi East 5.8 mph - N/A   Overcast
6:54 PM 37.9 °F 33.5 °F 28.9 °F 70% 30.19 in 10.0 mi Variable 5.8 mph - 0.00 in   Overcast
7:54 PM 37.9 °F 33.5 °F 30.0 °F 73% 30.18 in 10.0 mi Variable 5.8 mph - N/A   Overcast
8:54 PM 37.0 °F 31.0 °F 30.9 °F 79% 30.16 in 10.0 mi ESE 8.1 mph - 0.00 in   Overcast
9:45 PM 35.6 °F 28.6 °F 32.0 °F 87% 30.11 in 10.0 mi ESE 9.2 mph - 0.01 in Rain Light Rain
9:54 PM 35.1 °F 28.6 °F 32.0 °F 89% 30.13 in 8.0 mi East 8.1 mph - 0.01 in Rain Light Rain
10:36 PM 35.6 °F 30.7 °F 33.8 °F 93% 30.09 in 5.0 mi East 5.8 mph - 0.08 in Rain Light Rain
10:54 PM 35.1 °F - 34.0 °F 96% 30.09 in 7.0 mi Calm Calm - 0.09 in Rain Light Rain
11:54 PM 36.0 °F 32.1 °F 34.0 °F 93% 30.06 in 10.0 mi ENE 4.6 mph - 0.04 in Rain Light Rain